Weather in Novye Chukaly

Russia / Chuvash Republic     54°41′19″N   47°10′47″E
temp.,
°C
wind,
m/s
gust,
m/s
humid.,
%
clouds,
%
prec.,
mm/h
press.,
hPa
HPBL,
m
11 may, tue
tue1100:00+14nne6139240 0.0 1021335
03:00+14ne51190100 0.0 1022285
06:00+14ne488319 0.0 1023211
09:00+20e4654100 0.0 1024570
12:00+23ese5742100 0.0 10251606
15:00+23se574399 0.0 10251621
18:00+20ese2460100 0.0 1026101
21:00+16e117083 0.0 102711
12 may, wed
wed1200:00+14e117677 0.0 102711
03:00+14ne227252 0.0 102629
06:00+16e387116 0.0 1027230
09:00+20ese6954100 0.0 10271116
12:00+20se61149100 0.0 10271605
15:00+18ese4105720 0.0 1026636
18:00+19se410536 0.0 1026424
21:00+15ese226325 0.0 102629
13 may, thu
thu1300:00+14ese226818 0.0 102630
03:00+13e34727 0.0 102650
06:00+15ese4117169 0.0 1025359
09:00+19ese7114970 0.0 1025703
12:00+20s4755100 0.0 10241029
15:00+18ese61368100 1.0 1024523
18:00+17ese51476100 0.0 1023508
21:00+16ese4127685 0.0 1023272
14 may, fri
fri1400:00+14se410815 0.1 1022190
03:00+13se4127374 0.1 1022216
06:00+15se41368100 0.1 1022377
09:00+20s475165 0.1 1021498
12:00+23s5851100 0.0 1021954
15:00+24ssw5853100 0.0 10211380
18:00+22s41060100 0.0 1020378
21:00+18sse226677 0.0 102027
15 may, sat
sat1500:00+16sse38639 0.0 1020122
03:00+15sse34609 0.0 102051
06:00+17sse3116089 0.0 1020250
09:00+22s5947100 0.0 1019392
12:00+25s6939100 0.0 1019813
15:00+26s693785 0.0 10181069
18:00
21:00+18sse4135628 0.0 1017235